Reidsville, NC

12:38 PM EDT on September 20, 2017 (GMT -0400)
Reidsville

Weather History for KSIF - March, 2013

Change the Weather History Date:

Tuesday, March 12, 2013

  Actual Average (KGSO) Record (KGSO)
Temperature  
Mean Temperature 54 °F -  
Max Temperature 66 °F 60 °F 86 °F (1990)
Min Temperature 40 °F 38 °F 15 °F (1934)
Degree Days  
Heating Degree Days 12    
Growing Degree Days 4 (Base 50)    
Moisture  
Dew Point 46 °F    
Average Humidity 70    
Maximum Humidity 99    
Minimum Humidity 37    
Precipitation  
Precipitation 0.51 in - - ()
Sea Level Pressure  
Sea Level Pressure 29.84 in    
Wind  
Wind Speed 5 mph (WSW)    
Max Wind Speed 12 mph    
Max Gust Speed 16 mph    
Visibility 9 miles    
Events Rain    
Averages and records for this station are not official NWS values.
T = Trace of Precipitation, MM = Missing Value Source: NWS Daily Summary

Daily Weather History Graph

Daily Weather History Graph

Search for Another Location

Airport or City:

Trip Planner

Search our weather history database for the weather conditions in past years. The results will help you decide how hot, cold, wet, or windy it might be!

Date:

Astronomy

Mar. 12, 2013 Rise Set
Actual Time 7:34 AM EDT 7:24 PM EDT
Civil Twilight 7:08 AM EDT 7:50 PM EDT
Nautical Twilight 6:38 AM EDT 8:19 PM EDT
Astronomical Twilight 6:08 AM EDT 8:50 PM EDT
Moon 7:42 AM EDT (3/12) 8:34 PM EDT (3/12)
Length of Visible Light 12h 41m
Length of Day
11h 50m
New Moon, 1% of the Moon is Illuminated
Mar 12
New Moon
Mar 19
First Quarter
Mar 27
Full
Apr 3
Last Quarter
Apr 10
New

Hourly Weather History & Observations

Time (EDT) Temp. Windchill Dew Point Humidity Pressure Visibility Wind Dir Wind Speed Gust Speed Precip Events Conditions
12:15 AM 57.7 °F - 53.6 °F 86% 29.88 in 10.0 mi South 9.2 mph 16.1 mph N/A Rain Rain
12:55 AM 57.0 °F - 54.1 °F 90% 29.88 in 10.0 mi SSW 5.8 mph - 0.01 in Rain Light Rain
1:15 AM 56.7 °F - 54.1 °F 91% 29.87 in 10.0 mi South 5.8 mph - 0.01 in Rain Light Rain
1:35 AM 56.3 °F - 54.5 °F 94% 29.86 in 7.0 mi SSE 3.5 mph - 0.02 in Rain Light Rain
1:55 AM 55.8 °F - 54.5 °F 96% 29.85 in 7.0 mi SSE 3.5 mph - 0.04 in Rain Rain
2:15 AM 56.3 °F - 55.0 °F 96% 29.84 in 7.0 mi South 5.8 mph - 0.01 in Rain Rain
2:35 AM 56.3 °F - 54.9 °F 95% 29.84 in 7.0 mi South 3.5 mph - 0.04 in Rain Rain
2:55 AM 55.9 °F - 55.0 °F 97% 29.83 in 7.0 mi SSE 4.6 mph - 0.07 in Rain Rain
3:15 AM 56.1 °F - 55.4 °F 97% 29.82 in 5.0 mi South 5.8 mph - 0.03 in Rain Rain
3:55 AM 56.3 °F - 55.6 °F 97% 29.78 in 5.0 mi Calm Calm - 0.12 in Rain Rain
4:15 AM 56.5 °F - 56.1 °F 99% 29.78 in 5.0 mi South 3.5 mph - 0.02 in Rain Light Rain
4:35 AM 57.4 °F - 56.7 °F 97% 29.76 in 7.0 mi South 5.8 mph - 0.05 in Rain Light Rain
4:55 AM 58.1 °F - 57.0 °F 96% 29.75 in 10.0 mi South 8.1 mph - 0.06 in Rain Light Rain
5:15 AM 58.6 °F - 57.2 °F 95% 29.75 in 10.0 mi South 5.8 mph - N/A Rain Rain
5:35 AM 58.6 °F - 57.2 °F 95% 29.75 in 7.0 mi South 4.6 mph - 0.02 in Rain Heavy Rain
5:55 AM 58.5 °F - 57.4 °F 96% 29.74 in 5.0 mi SSW 4.6 mph - 0.08 in Rain Rain
6:15 AM 58.3 °F - 57.4 °F 97% 29.75 in 5.0 mi SSW 5.8 mph - 0.04 in Rain Heavy Rain
6:35 AM 58.1 °F - 57.4 °F 97% 29.74 in 5.0 mi South 4.6 mph - 0.09 in Rain Rain
6:55 AM 58.1 °F - 57.6 °F 98% 29.74 in 7.0 mi SSW 3.5 mph - 0.10 in Rain Light Rain
7:15 AM 58.1 °F - 57.6 °F 98% 29.75 in 7.0 mi Calm Calm - N/A   Light Drizzle
7:35 AM 58.5 °F - 57.7 °F 97% 29.75 in 10.0 mi SSW 4.6 mph - N/A   Overcast
7:55 AM 59.0 °F - 57.4 °F 94% 29.75 in 10.0 mi SSW 4.6 mph - N/A   Overcast
8:15 AM 59.0 °F - 57.4 °F 94% 29.75 in 10.0 mi SW 5.8 mph - N/A   Overcast
8:55 AM 58.1 °F - 56.8 °F 96% 29.77 in 7.0 mi WSW 4.6 mph - 0.03 in   Light Drizzle
9:15 AM 58.1 °F - 56.7 °F 95% 29.78 in 5.0 mi WSW 3.5 mph - N/A Rain Light Rain
9:35 AM 57.7 °F - 56.3 °F 95% 29.79 in 10.0 mi WSW 3.5 mph - N/A Rain Rain
9:55 AM 58.6 °F - 56.8 °F 94% 29.79 in 10.0 mi West 4.6 mph - N/A   Overcast
10:15 AM 56.1 °F - 53.1 °F 89% 29.81 in 10.0 mi Calm Calm - N/A   Overcast
10:35 AM 55.9 °F - 52.3 °F 88% 29.81 in 10.0 mi North 3.5 mph - N/A   Overcast
10:55 AM 55.4 °F - 51.4 °F 87% 29.83 in 10.0 mi NNW 4.6 mph - N/A   Overcast
11:15 AM 55.8 °F - 49.5 °F 79% 29.83 in 10.0 mi Calm Calm - N/A   Overcast
11:35 AM 56.7 °F - 48.7 °F 75% 29.84 in 10.0 mi Calm Calm - N/A   Overcast
11:55 AM 57.2 °F - 47.3 °F 69% 29.84 in 10.0 mi NNW 3.5 mph - N/A   Overcast
12:15 PM 56.3 °F - 46.4 °F 69% 29.84 in 10.0 mi Calm Calm - N/A   Overcast
12:35 PM 58.8 °F - 47.1 °F 65% 29.84 in 10.0 mi Calm Calm - N/A   Mostly Cloudy
12:55 PM 60.6 °F - 45.7 °F 58% 29.83 in 10.0 mi Calm Calm - N/A   Scattered Clouds
1:15 PM 61.3 °F - 46.6 °F 58% 29.83 in 10.0 mi WNW 3.5 mph - N/A   Scattered Clouds
1:35 PM 62.6 °F - 46.6 °F 56% 29.82 in 10.0 mi WNW 5.8 mph - N/A   Scattered Clouds
1:55 PM 65.5 °F - 47.3 °F 52% 29.81 in 10.0 mi West 8.1 mph - N/A   Clear
2:15 PM 64.8 °F - 45.5 °F 50% 29.81 in 10.0 mi West 6.9 mph - N/A   Clear
2:35 PM 65.8 °F - 45.5 °F 48% 29.81 in 10.0 mi WSW 11.5 mph 16.1 mph N/A   Clear
2:55 PM 65.8 °F - 44.4 °F 46% 29.81 in 10.0 mi West 9.2 mph 16.1 mph N/A   Clear
3:15 PM 66.0 °F - 39.2 °F 37% 29.81 in 10.0 mi West 8.1 mph - N/A   Scattered Clouds
3:35 PM 65.1 °F - 40.6 °F 41% 29.81 in 10.0 mi West 6.9 mph - N/A   Clear
3:55 PM 65.7 °F - 39.2 °F 38% 29.82 in 10.0 mi West 8.1 mph - N/A   Clear
4:15 PM 65.5 °F - 40.8 °F 41% 29.81 in 10.0 mi West 8.1 mph - N/A   Clear
4:35 PM 64.8 °F - 39.0 °F 39% 29.82 in 10.0 mi West 5.8 mph - N/A   Clear
4:55 PM 64.6 °F - 37.6 °F 37% 29.83 in 10.0 mi West 6.9 mph - N/A   Clear
5:15 PM 63.7 °F - 36.7 °F 37% 29.83 in 10.0 mi West 8.1 mph - N/A   Clear
5:35 PM 62.8 °F - 36.1 °F 37% 29.84 in 10.0 mi West 6.9 mph - N/A   Clear
5:55 PM 62.2 °F - 36.3 °F 38% 29.84 in 10.0 mi West 8.1 mph - N/A   Clear
6:15 PM 61.3 °F - 35.6 °F 38% 29.85 in 10.0 mi West 5.8 mph - N/A   Clear
6:35 PM 60.3 °F - 36.1 °F 41% 29.86 in 10.0 mi WNW 5.8 mph - N/A   Clear
6:55 PM 58.5 °F - 36.1 °F 43% 29.87 in 10.0 mi NW 3.5 mph - N/A   Clear
7:15 PM 56.8 °F - 32.2 °F 39% 29.88 in 10.0 mi NW 3.5 mph - N/A   Clear
7:35 PM 54.9 °F - 31.3 °F 41% 29.90 in 10.0 mi NNW 3.5 mph - N/A   Clear
7:55 PM 53.6 °F - 30.0 °F 41% 29.91 in 10.0 mi Calm Calm - N/A   Clear
8:15 PM 52.7 °F - 29.7 °F 41% 29.93 in 10.0 mi NNW 3.5 mph - N/A   Clear
8:35 PM 51.6 °F - 30.0 °F 44% 29.94 in 10.0 mi NW 3.5 mph - N/A   Clear
8:55 PM 50.9 °F - 30.2 °F 45% 29.95 in 10.0 mi NNW 4.6 mph - N/A   Clear
9:15 PM 50.4 °F - 30.7 °F 47% 29.96 in 10.0 mi NNW 3.5 mph - N/A   Clear
9:35 PM 49.3 °F - 30.7 °F 49% 29.96 in 10.0 mi Calm Calm - N/A   Clear
9:55 PM 48.0 °F - 30.9 °F 52% 29.97 in 10.0 mi NNW 3.5 mph - N/A   Clear
10:15 PM 46.9 °F - 31.1 °F 54% 29.97 in 10.0 mi Calm Calm - N/A   Clear
10:35 PM 45.0 °F - 31.1 °F 58% 29.99 in 10.0 mi Calm Calm - N/A   Clear
10:55 PM 42.4 °F - 31.8 °F 66% 29.99 in 10.0 mi Calm Calm - N/A   Clear
11:15 PM 43.5 °F - 31.1 °F 62% 29.99 in 10.0 mi Calm Calm - N/A   Clear
11:35 PM 41.0 °F - 31.1 °F 68% 29.99 in 10.0 mi Calm Calm - N/A   Clear
11:55 PM 40.6 °F 38.6 °F 31.3 °F 69% 29.99 in 10.0 mi North 3.5 mph - N/A   Clear